Location: Biberach+an+der+Riss
(48.0937°N, 9.7888°E)
Time: 03:09:45
(UTC+01:00)

ISS - Pass Details

Date: 11 November 2017
Orbit: 402 x 407 km, 51.6° (Epoch: 24 November)

Event Time Altitude Azimuth Distance (km) Brightness Sun altitude
Exits shadow 06:42:30 - 291° (WNW) 1,527 -1.6 -6.9°
Reaches altitude 10° 06:42:40 10° 291° (WNW) 1,458 -1.7 -6.8°
Maximum altitude 06:45:56 78° 206° (SSW) 416 -3.8 -6.3°
Drops below altitude 10° 06:49:11 10° 119° (ESE) 1,452 0.7 -5.8°
Sets 06:51:15 0° 118° (ESE) 2,309 2.4 -5.5°
